Temp
29 29 29 30 31 31 31 30 28 21 24 31 31 37 38 39 41 41 43 43 45 46 48 51 53 55 57 58 59 59 61 62 62 66 66 65 64 64
29 28 28 28 28 28 28 29 29 25 21 29 31 33 35 38 38 38 39 40 43 45 46 48 51 52 54 56 57 58 59 61 62 65 64 64 64 64
24 24 24 25 24 24 24 24 24 24 20 24 28 30 29 31 33 34 35 35 37 41 42 44 47 49 51 53 55 56 57 59 61 63 63 64 63 63
22 22 22 24 20 21 21 20 20 21 20 16 21 23 24 27 28 29 31 35 33 37 39 42 45 48 49 50 52 55 54 54 58 60 62 63 62 62
21 20 20 20 18 18 19 19 19 21 20 17 16 21 22 24 24 26 27 28 33 35 38 40 43 46 47 48 51 51 51 50 54 56 59 60 61 61
21 21 20 20 19 18 18 17 18 16 16 16 16 18 20 23 24 22 23 27 28 34 38 41 42 43 46 48 48 49 49 50 52 55 56 56 58 59
21 22 22 22 24 24 22 20 19 18 17 16 16 17 18 20 21 24 23 25 27 31 33 35 37 43 44 46 46 46 48 49 50 54 55 55 56 57
19 21 22 21 23 25 26 27 26 20 18 17 19 18 20 22 24 23 23 22 21 32 30 30 35 39 42 43 47 48 49 49 50 53 54 54 55 55
20 20 21 24 23 23 24 26 26 27 27 24 20 20 21 24 26 24 24 24 24 29 29 26 32 33 40 44 46 46 47 49 48 52 54 54 55 55
21 22 22 23 24 24 23 21 22 23 24 24 23 24 25 26 26 26 25 25 27 28 30 22 29 33 38 39 45 46 47 46 47 49 53 54 54 54
22 24 23 23 24 27 22 19 19 21 27 28 29 30 30 30 30 27 22 21 20 23 29 29 30 34 36 37 40 45 47 47 47 48 52 54 53 53
20 24 24 24 25 26 22 19 16 19 21 20 22 25 28 28 31 28 26 22 24 23 29 26 31 33 30 33 36 39 43 47 47 49 53 53 53 56
18 18 20 23 26 25 26 19 18 22 21 19 22 23 24 25 26 27 28 27 24 24 30 29 29 31 32 32 36 38 39 42 50 51 52 53 53 57
17 19 20 25 23 23 21 23 23 22 15 15 17 19 22 24 26 28 29 30 30 28 30 31 29 31 31 32 31 36 38 37 51 53 55 54 52 55
20 22 23 21 20 18 19 21 18 14 13 12 13 16 20 24 27 28 31 32 29 29 32 33 30 32 32 32 32 33 33 36 50 54 55 54 53 57
20 13 16 16 17 17 14 16 16 14 14 13 13 16 19 20 21 24 27 29 27 29 32 33 33 33 31 33 33 32 34 32 39 53 54 54 56 57
10 5 6 7 8 10 10 11 13 13 13 14 13 13 15 17 19 22 24 28 27 28 29 32 34 35 36 34 32 33 34 34 38 48 52 51 53 54
-2 -3 3 5 5 7 7 8 11 11 13 14 13 13 13 14 15 16 19 20 27 29 29 33 34 32 33 34 35 33 34 34 39 50 53 51 51 53
-11 -2 1 3 4 6 7 8 8 11 13 13 13 12 14 13 12 12 14 17 20 28 31 34 34 32 29 28 37 38 35 38 44 49 52 52 51 52
-10 -2 -1 1 3 5 6 7 9 9 12 12 12 13 11 10 9 10 11 13 16 21 28 33 34 34 32 32 34 38 37 40 45 49 51 53 54 50
-10 -3 -1 0 2 4 5 7 8 8 12 12 13 11 10 9 8 8 10 11 13 15 19 26 35 37 37 36 34 37 42 38 47 52 52 51 50 49
-10 -5 -2 -1 1 3 4 6 7 8 12 13 12 11 10 9 8 8 9 9 11 14 18 27 34 36 35 34 35 37 42 44 39 47 51 52 51 46
-9 -6 -4 -3 0 2 4 5 6 8 12 14 12 11 10 8 9 10 10 10 11 13 16 20 30 34 34 37 38 40 40 41 47 47 49 44 43 46
MSLP
1021.53 1021.58 1021.48 1021.40 1021.36 1021.11 1020.96 1020.88 1020.53 1018.08 1014.33 1011.96 1013.43 1013.21 1013.06 1012.54 1011.87 1011.27 1010.57 1010.46 1010.00 1009.34 1008.48 1007.64 1007.13 1006.22 1005.68 1005.50 1005.43 1005.35 1005.27 1004.97 1004.73 1004.84 1004.74 1006.30 1005.96 1007.52
1021.45 1021.26 1021.18 1020.90 1020.91 1020.61 1020.56 1020.31 1020.12 1019.50 1017.27 1013.50 1011.94 1012.92 1012.89 1012.27 1011.64 1011.07 1010.36 1009.95 1009.15 1008.30 1007.53 1006.81 1005.99 1005.40 1004.83 1004.38 1004.03 1004.02 1004.14 1003.81 1003.38 1003.39 1003.89 1003.80 1004.20 1005.92
1021.31 1021.26 1020.82 1020.72 1020.39 1020.47 1020.19 1020.09 1019.60 1019.45 1018.09 1013.44 1013.36 1012.21 1012.39 1012.03 1011.38 1010.91 1010.20 1009.27 1008.31 1007.46 1006.95 1006.17 1004.95 1004.41 1003.79 1003.13 1002.83 1002.54 1002.69 1002.32 1001.93 1002.00 1002.51 1002.78 1004.46 1004.51
1020.95 1020.90 1020.61 1020.38 1020.27 1020.25 1020.13 1019.53 1019.15 1018.90 1018.16 1016.43 1013.65 1012.87 1011.85 1011.68 1011.22 1010.28 1009.40 1008.50 1007.67 1006.69 1006.00 1004.84 1003.83 1002.68 1002.08 1001.76 1001.56 1001.14 1001.20 1001.16 1000.61 1000.57 1000.77 1001.61 1002.59 1003.32
1020.64 1020.43 1020.21 1020.18 1020.01 1019.50 1019.30 1018.69 1018.27 1017.79 1017.29 1016.43 1014.18 1013.49 1012.00 1011.41 1010.45 1009.64 1008.57 1007.61 1006.55 1005.08 1003.98 1002.90 1002.04 1001.30 1000.92 1000.32 999.64 999.35 999.51 999.57 999.25 998.93 999.44 999.31 1000.89 1002.01
1020.17 1019.89 1019.44 1019.30 1019.07 1018.58 1018.12 1017.53 1017.03 1016.42 1016.02 1015.10 1013.92 1012.66 1011.79 1010.61 1009.73 1008.67 1006.88 1006.29 1004.55 1003.59 1002.33 1000.96 1000.16 999.41 998.68 998.41 998.29 997.70 997.85 997.85 997.83 997.46 997.81 997.96 998.75 1000.67
1019.45 1018.90 1018.70 1018.27 1017.86 1017.35 1016.55 1015.92 1015.54 1014.85 1014.21 1013.26 1012.01 1011.18 1010.32 1009.63 1008.67 1007.63 1006.05 1005.17 1003.33 1002.90 1001.22 1000.06 998.74 997.26 996.36 996.66 996.25 996.15 996.29 996.28 995.89 995.59 996.07 996.96 997.94 999.18
1018.52 1018.03 1017.70 1017.33 1016.89 1016.24 1015.31 1014.51 1013.94 1013.08 1012.25 1011.45 1010.10 1009.01 1008.17 1007.69 1007.06 1006.38 1005.43 1004.31 1001.60 1001.82 1000.78 999.01 998.24 995.67 995.58 994.96 994.35 994.56 994.30 994.47 993.96 993.85 994.30 995.08 996.20 997.87
1017.91 1017.40 1016.58 1016.07 1015.58 1014.64 1013.71 1012.92 1012.21 1011.75 1010.87 1009.78 1008.40 1007.75 1006.69 1006.35 1005.66 1004.65 1003.94 1003.15 1001.27 999.81 1000.57 998.70 998.02 996.78 995.28 993.99 993.35 992.93 993.08 992.77 992.39 992.30 992.53 993.41 994.58 996.27
1017.15 1016.22 1015.39 1014.70 1014.22 1013.45 1012.35 1011.24 1010.35 1009.53 1009.02 1008.29 1006.99 1005.70 1005.08 1004.62 1004.20 1003.29 1002.56 1001.74 1000.40 999.27 1000.17 998.77 996.94 995.72 994.26 993.35 992.49 991.87 991.64 991.63 991.49 991.45 991.06 991.87 993.24 994.96
1016.08 1015.10 1014.49 1013.76 1013.31 1012.34 1011.19 1009.91 1008.63 1007.60 1006.99 1006.20 1005.00 1003.75 1002.94 1002.42 1002.22 1001.81 1000.64 1000.41 998.49 997.39 997.99 997.49 995.52 994.15 993.03 991.94 990.71 990.33 990.02 990.24 990.18 990.04 990.13 990.24 992.03 993.69
1015.06 1014.29 1013.92 1013.12 1012.26 1011.13 1010.00 1008.80 1007.23 1006.04 1005.21 1004.23 1003.06 1001.68 1000.92 1000.45 1000.23 999.83 999.01 998.20 997.16 995.26 995.71 996.43 994.32 992.86 991.64 990.14 989.88 989.75 988.56 988.32 987.83 987.89 988.48 989.20 990.48 992.49
1014.06 1013.65 1013.15 1012.32 1010.94 1010.11 1008.98 1008.23 1006.98 1005.13 1003.87 1003.01 1001.61 999.88 999.32 998.85 998.38 997.81 997.51 997.04 995.79 994.21 994.39 994.79 993.67 992.66 990.86 989.84 989.11 988.53 988.01 987.14 986.50 986.14 986.70 987.70 988.90 990.35
1013.40 1012.86 1012.15 1010.95 1010.29 1009.48 1008.40 1007.22 1006.11 1004.71 1004.10 1002.65 1001.27 999.67 998.16 997.02 996.28 995.65 995.08 994.49 993.78 993.07 992.98 992.78 991.94 991.32 990.51 989.45 988.51 987.37 986.63 986.27 984.94 984.21 985.17 986.48 987.82 988.80
1012.92 1012.04 1011.43 1010.75 1009.95 1008.99 1008.18 1006.77 1006.13 1005.19 1003.47 1002.14 1000.84 999.40 998.13 996.66 995.21 993.91 992.91 992.02 991.71 991.52 991.28 990.78 990.78 990.03 989.56 988.83 987.86 987.25 987.26 985.12 983.81 982.61 983.64 984.59 985.74 986.49
1012.50 1012.51 1011.74 1011.07 1009.94 1008.87 1007.72 1006.86 1005.83 1004.79 1003.20 1001.75 1000.35 999.05 997.76 996.23 994.73 993.54 991.77 990.19 989.83 989.16 988.81 988.70 988.63 988.49 987.92 987.61 987.58 987.02 986.91 986.61 984.28 981.62 982.18 983.50 984.90 986.19
1012.86 1012.62 1011.92 1010.96 1009.76 1008.68 1007.58 1006.71 1005.36 1004.27 1002.58 1001.20 999.93 998.51 997.12 995.52 993.92 992.76 991.11 989.07 988.00 987.59 986.94 986.59 986.59 986.74 986.37 985.81 985.68 985.11 985.79 985.14 983.11 982.02 981.24 981.65 983.75 984.51
1012.96 1012.95 1012.24 1011.28 1010.23 1009.17 1007.84 1006.56 1004.94 1003.61 1002.13 1000.61 999.30 998.04 996.56 995.00 993.60 992.16 990.98 989.34 987.17 985.93 985.53 985.13 985.06 985.14 984.99 984.38 984.64 984.33 983.21 982.28 981.41 979.27 978.95 981.07 982.97 984.14
1013.42 1013.12 1012.31 1011.21 1010.41 1009.03 1007.82 1006.33 1004.71 1003.25 1001.80 1000.18 998.77 997.31 995.72 994.53 993.19 991.69 990.42 989.10 987.16 985.29 984.19 983.61 983.30 983.56 982.84 981.51 981.05 981.12 981.51 981.12 979.69 977.65 977.97 979.53 981.73 983.10
1013.53 1012.86 1012.25 1011.54 1010.37 1008.96 1007.64 1006.05 1004.39 1002.84 1001.14 999.60 997.94 996.36 995.29 994.05 992.54 991.20 990.06 988.91 987.40 985.29 983.56 981.92 981.39 981.51 981.05 980.46 980.49 979.56 979.49 978.52 977.79 976.45 977.87 979.44 981.60 983.09
1013.58 1013.01 1012.69 1011.80 1010.33 1009.00 1007.62 1005.91 1004.38 1002.77 1000.77 999.10 997.17 995.82 994.59 993.35 991.80 990.59 989.39 988.38 987.20 985.36 983.03 981.32 979.10 979.20 980.02 980.03 979.17 977.06 976.07 976.12 976.18 975.34 976.76 978.34 980.71 982.90
1013.57 1013.04 1012.46 1011.39 1010.18 1008.79 1007.30 1005.78 1004.00 1002.34 1000.27 998.54 996.77 995.28 993.85 992.58 990.99 989.62 988.45 987.31 986.12 984.58 982.88 980.65 979.17 978.45 978.05 977.79 976.85 975.95 975.64 975.15 975.67 975.56 976.66 976.70 978.37 980.33
1013.69 1013.17 1012.12 1011.31 1010.04 1008.64 1007.12 1005.69 1004.10 1002.27 1000.15 998.19 996.36 994.61 993.12 991.46 990.17 988.69 987.26 986.05 984.94 983.41 981.73 980.02 978.52 977.59 976.97 976.07 975.70 975.32 974.81 974.57 974.83 976.00 977.18 977.43 978.42 979.28
Wind_Speed
5 6 7 7 7 7 7 8 11 18 24 16 13 8 11 12 15 14 14 20 30 34 35 34 33 32 34 33 36 33 33 31 26 30 36 41 42 43
5 7 8 7 7 6 7 8 9 11 20 17 17 16 15 14 17 18 20 30 32 34 34 37 32 31 31 35 36 34 34 34 30 31 34 36 45 46
8 9 11 10 8 8 8 9 10 11 15 24 18 20 20 19 16 16 18 19 17 33 37 39 37 37 35 32 37 35 34 33 30 31 33 38 41 42
10 10 12 9 10 10 9 12 12 12 13 21 22 19 22 18 19 21 17 16 18 30 43 42 40 35 35 35 38 39 31 30 32 29 36 41 44 41
9 11 11 11 12 10 12 12 12 11 12 14 18 15 18 16 18 18 20 19 17 34 39 41 41 39 40 39 37 32 28 27 32 30 34 43 43 45
10 11 12 13 14 14 13 14 14 14 14 15 16 16 15 15 15 15 17 13 16 15 25 27 29 33 34 35 29 27 28 28 31 33 36 34 40 42
11 12 12 15 23 23 14 14 14 13 13 14 16 15 15 15 16 13 16 15 18 15 15 14 16 15 12 19 24 29 30 29 31 34 38 37 39 43
12 12 12 16 20 27 29 32 27 18 18 15 16 18 20 17 16 15 16 15 18 11 9 16 15 6 8 9 15 27 27 32 28 36 39 45 44 44
13 14 14 12 17 18 25 32 31 33 34 24 23 21 22 20 19 19 18 17 19 16 13 18 13 15 13 12 22 23 23 22 22 36 44 46 49 49
14 14 15 16 16 19 20 20 20 18 19 18 23 23 22 20 20 20 21 21 19 17 12 18 14 16 13 9 22 24 25 20 18 24 45 48 47 49
13 13 13 15 24 29 21 21 21 19 21 35 39 40 40 40 34 18 17 17 18 16 11 14 14 16 10 13 14 26 27 24 22 24 44 51 49 48
10 12 17 21 28 31 22 18 21 19 18 21 22 26 30 26 38 24 15 18 16 19 11 13 16 9 7 5 3 6 5 14 23 28 46 49 48 26
6 9 10 25 30 32 30 16 20 22 21 15 19 12 15 18 16 17 19 18 18 20 16 15 15 14 5 9 9 9 8 11 13 22 47 49 52 40
8 9 13 28 30 29 23 28 32 24 13 12 14 13 13 13 15 17 21 21 19 22 19 19 16 15 14 14 13 10 11 11 15 21 24 38 51 50
8 17 27 27 27 19 26 29 21 13 12 12 13 13 13 14 16 17 20 23 21 21 19 22 18 18 11 12 14 11 12 9 12 19 22 26 25 28
13 8 16 20 21 20 14 15 12 13 13 13 12 13 15 14 14 13 16 12 13 13 20 23 20 15 12 14 11 14 10 9 13 18 21 22 25 25
7 6 8 10 11 11 11 13 12 13 13 12 13 14 14 13 13 13 13 15 14 13 11 10 17 19 16 16 13 13 13 14 15 19 20 21 22 23
3 4 8 9 10 12 12 13 13 16 14 15 14 14 15 14 14 14 13 13 15 12 13 12 10 11 12 15 24 15 13 13 15 20 25 22 20 21
1 5 7 9 10 11 12 13 15 15 17 15 15 15 13 14 16 13 13 13 14 13 11 11 11 12 13 17 11 30 16 14 15 18 20 20 20 21
1 6 8 10 11 11 12 13 14 15 15 16 16 13 14 14 14 13 12 13 13 14 13 13 14 13 15 14 12 8 33 14 13 19 20 18 17 22
3 6 7 9 10 11 12 13 15 15 16 17 15 15 14 13 14 13 13 18 18 14 16 14 13 17 11 10 13 15 10 29 20 23 23 22 21 15
3 5 8 9 10 11 12 14 14 16 16 16 17 15 14 13 14 14 13 14 13 13 14 14 14 9 10 12 15 13 11 6 8 25 30 25 26 16
4 6 7 9 10 11 12 13 15 16 16 17 18 17 16 15 14 13 13 14 14 15 15 14 12 10 13 15 16 12 9 7 13 15 17 16 18 25
Wind_Direction
273 272 270 271 271 272 271 271 275 294 291 294 296 294 291 288 284 296 292 300 296 295 294 293 286 278 264 255 263 262 260 255 258 246 215 209 186 185
278 279 277 276 276 280 277 272 263 268 279 284 288 294 298 291 288 290 292 289 286 292 288 284 282 277 275 267 253 255 259 251 249 245 225 197 187 183
272 270 271 276 276 276 273 271 268 263 267 286 286 296 293 292 292 294 290 288 282 279 278 283 278 271 272 272 263 252 249 248 244 240 217 203 198 185
265 267 271 281 279 276 272 268 266 267 271 276 286 293 291 294 288 285 287 287 286 282 281 278 269 271 261 264 262 249 238 249 242 235 216 193 187 181
266 268 275 274 271 268 267 269 268 269 267 268 276 282 287 292 287 282 280 277 271 275 275 269 266 266 266 265 261 242 236 245 239 225 213 189 189 185
271 270 272 269 270 271 265 263 263 261 259 260 264 271 273 280 276 281 279 275 278 277 277 270 269 266 256 256 250 248 236 244 244 220 207 209 184 186
274 276 274 269 271 275 280 275 269 263 261 261 261 262 264 270 269 276 277 286 280 282 279 280 273 265 234 241 242 237 236 238 240 217 201 194 185 181
285 279 278 278 272 278 282 284 281 279 275 271 270 262 260 261 264 268 270 273 284 277 288 294 301 251 268 256 254 238 227 231 233 215 194 184 175 173
282 284 283 276 279 279 277 280 280 277 274 276 274 269 274 273 272 272 269 271 276 285 294 289 296 290 271 270 261 246 257 223 226 212 190 182 177 175
276 280 284 288 290 293 291 286 281 275 271 263 264 267 263 263 264 269 272 273 272 274 270 272 281 266 274 260 263 257 242 250 235 230 194 181 179 178
282 292 296 303 297 303 302 292 285 283 279 278 275 274 266 259 256 262 257 260 262 265 254 269 270 270 261 271 261 248 233 231 248 232 202 181 180 177
283 305 305 309 307 307 304 302 294 294 295 283 271 264 265 266 267 272 275 269 272 267 256 260 258 253 264 233 284 301 291 249 245 234 201 185 179 176
310 306 303 304 317 318 312 317 297 298 305 307 292 262 255 254 252 247 251 255 261 262 265 258 267 268 269 294 285 294 292 303 245 212 189 183 179 179
309 308 300 317 320 324 324 315 318 319 308 303 300 296 281 262 249 249 248 246 247 251 255 247 253 255 269 271 286 300 307 306 249 196 189 182 179 181
317 311 327 320 322 322 322 322 330 308 307 306 302 299 292 291 292 271 255 248 245 241 243 246 246 247 243 259 275 282 295 302 264 191 185 179 178 178
321 335 319 319 318 318 319 318 315 312 308 308 302 301 297 290 284 281 280 254 243 245 236 235 238 241 248 254 255 262 260 258 309 193 186 182 181 179
10 322 317 324 323 325 324 315 317 315 311 314 307 304 299 292 293 293 286 277 242 247 242 224 229 231 236 245 250 255 249 245 243 242 175 172 181 173
11 316 318 321 323 321 320 318 317 321 314 316 311 305 298 295 297 294 290 280 274 235 242 240 235 225 232 235 223 242 253 255 262 213 167 171 175 175
359 310 318 325 317 319 317 320 316 320 310 315 310 303 296 303 299 291 290 289 282 281 249 242 235 224 242 252 244 214 228 228 249 177 165 163 173 173
299 327 326 316 315 318 315 319 315 317 314 318 310 307 309 301 297 291 287 284 283 276 279 238 228 225 232 241 251 231 208 229 231 173 169 166 175 167
302 327 305 304 309 311 312 316 316 311 317 319 318 318 311 303 295 288 284 281 276 274 272 269 242 235 235 246 251 253 273 206 221 173 168 166 166 167
298 311 307 311 309 313 314 318 317 313 321 323 325 320 313 305 298 292 284 280 273 270 267 275 268 253 238 237 244 246 253 196 202 168 171 168 167 165
311 299 306 304 308 313 317 321 314 314 317 326 328 325 318 312 306 295 288 278 268 263 260 265 267 245 245 240 225 232 193 166 172 169 178 169 135 123